Buoy 53524

sailwx.info

Track history (hours):
 
Tides and Currents Weather Stations Pressure Air Temp Water Temp Dewpoint Dewpoint Depression Visibility Wind Speed Wind Dir Waves Ship Positions

Drifting buoy 53524

Last reported at 2014-Oct-21 12:00 UTC. Time now 2014-Oct-21 13:45 UTC.
Position S 07°60' E 087°43'.

Barometer 1008.8 mb
Water temperature 28.1 ° C

Date/timePositionNaut miles runAvg speedWind from/ knotsBaromVisibWave heightAir tempDewpointWater temp
2014-Oct-21 12:00S 07°60' E 087°43'5 2.4 1008.8 28.1
2014-Oct-21 10:00S 07°57' E 087°47'0 0.0 1008.0 28.1
2014-Oct-21 08:00S 07°57' E 087°47'0 0.0 1008.7 28.0
2014-Oct-21 03:00S 07°57' E 087°47'2 0.6 1011.8 27.8
2014-Oct-21 00:00S 07°56' E 087°48'2 1.6 1009.5 27.8
2014-Oct-20 23:00S 07°56' E 087°50'3 0.8 1009.2 27.8
2014-Oct-20 19:00S 07°55' E 087°53'1 0.5 1009.9 27.8
2014-Oct-20 16:00S 07°54' E 087°54'1 0.5 1011.6 27.8
2014-Oct-20 15:00S 07°53' E 087°54'4 1.2 1011.7 27.8
2014-Oct-20 12:00S 07°52' E 087°58'1 0.3 1009.4 28.1
2014-Oct-20 10:00S 07°53' E 087°57'2 2.3 1008.2 28.3
2014-Oct-20 09:00S 07°52' E 087°60'3 2.8 1008.1 28.3
2014-Oct-20 08:00S 07°52' E 088°02'0 0.0 1008.5 28.3
2014-Oct-20 04:00S 07°52' E 088°02'4 1.3 1010.6 28.3
2014-Oct-20 01:00S 07°53' E 088°06'2 0.8 1010.1 28.2
2014-Oct-19 23:00S 07°53' E 088°08'5 1.2 1008.6 28.2
2014-Oct-19 19:00S 07°55' E 088°12'0 0.1 1009.4 28.2
2014-Oct-19 16:00S 07°55' E 088°12'1 0.4 1011.2 28.2
2014-Oct-19 14:00S 07°54' E 088°13'2 1.1 1010.7 28.3
2014-Oct-19 12:00S 07°56' E 088°14'1 0.8 1009.2 28.3
2014-Oct-19 11:00S 07°55' E 088°15'1 1.3 1008.4 28.3
2014-Oct-19 10:00S 07°56' E 088°16'0 0.0 1008.2 28.4
2014-Oct-19 08:00S 07°56' E 088°16'5 0.7 1008.5 28.4
2014-Oct-19 00:00S 07°58' E 088°21'1 0.3 1009.9 28.2
2014-Oct-18 22:00S 07°58' E 088°22'1 0.3 1009.3 28.2
2014-Oct-18 19:00S 07°58' E 088°23'3 2.9 1010.0 28.3
2014-Oct-18 18:00S 07°59' E 088°26'1 0.5 1010.9 28.3
2014-Oct-18 16:00S 07°59' E 088°27'4 0.8 1012.2 28.3
2014-Oct-18 11:00S 07°60' E 088°30'1 1.3 1009.8 28.3
2014-Oct-18 10:00S 07°60' E 088°32'4 1.3 1009.4 28.3
2014-Oct-18 07:00S 08°01' E 088°35'1 0.3 1010.3 28.3
2014-Oct-18 02:00S 08°02' E 088°37'6 1.5 1012.6 28.3
2014-Oct-17 22:00S 08°04' E 088°42'2 0.8 1009.4 28.3
2014-Oct-17 20:00S 08°03' E 088°41'0 0.0 1010.2 28.3
2014-Oct-17 19:00S 08°03' E 088°41'5 1.8 1010.8 28.3
2014-Oct-17 16:00S 08°05' E 088°46'1 1.3 1012.7 28.3
2014-Oct-17 15:00S 08°05' E 088°47'3 3.1 1012.7 28.3
2014-Oct-17 14:00S 08°07' E 088°50'0 0.2 1012.3 28.3
2014-Oct-17 12:00S 08°07' E 088°50'2 1.5 1011.3 28.3
2014-Oct-17 11:00S 08°08' E 088°51'0 0.0 1010.5 28.3
2014-Oct-17 09:00S 08°08' E 088°51'1 1.4 1009.8 28.4
2014-Oct-17 08:00S 08°09' E 088°52'1 0.6 1009.8 28.4
2014-Oct-17 07:00S 08°09' E 088°53'2 0.5 1010.3 28.4
2014-Oct-17 02:00S 08°10' E 088°54'2 1.9 1012.8 28.3
2014-Oct-17 01:00S 08°11' E 088°56'0 0.0 1012.1 28.3
2014-Oct-17 00:00S 08°11' E 088°56'2 0.5 1011.2 28.3
2014-Oct-16 20:00S 08°11' E 088°58'1 1.4 1010.7 28.3
2014-Oct-16 19:00S 08°11' E 088°59'0 0.0 1011.5 28.3
2014-Oct-16 18:00S 08°11' E 088°59'2 2.2 1012.4 28.3
2014-Oct-16 17:00S 08°12' E 089°01'4 0.7 1013.1 28.3
2014-Oct-16 11:00S 08°12' E 089°06'4 0.5 1010.1 28.4
2014-Oct-16 03:00S 08°13' E 089°09'3 1.0 1012.9 28.3
2014-Oct-16 00:00S 08°13' E 089°12'1 0.8 1011.3 28.3
2014-Oct-15 23:00S 08°14' E 089°13'2 0.7 1010.8 28.3
2014-Oct-15 20:00S 08°14' E 089°15'4 1.0 1010.4 28.3
2014-Oct-15 16:00S 08°14' E 089°20'0 0.3 1012.5 28.3
2014-Oct-15 15:00S 08°14' E 089°19'4 4.1 1012.3 28.3
2014-Oct-15 14:00S 08°15' E 089°23'0 0.4 1012.2 28.4
2014-Oct-15 13:00S 08°14' E 089°24'1 0.7 1011.9 28.4
2014-Oct-15 11:00S 08°15' E 089°25'2 1.0 1010.5 28.4
2014-Oct-15 09:00S 08°15' E 089°27'3 1.7 1010.1 28.4
2014-Oct-15 07:00S 08°15' E 089°30'3 3.3 1011.1 28.4
2014-Oct-15 06:00S 08°15' E 089°27'3 1.6 1011.8 28.4
2014-Oct-15 04:00S 08°15' E 089°30'4 0.9 1012.8 28.4
2014-Oct-15 00:00S 08°16' E 089°34'1 0.7 1011.3 28.3
2014-Oct-14 22:00S 08°16' E 089°35'2 1.6 1010.8 28.3
2014-Oct-14 21:00S 08°16' E 089°37'1 0.7 1010.9 28.3
2014-Oct-14 20:00S 08°16' E 089°36'2 2.1 1011.4 28.4
2014-Oct-14 19:00S 08°16' E 089°38'6 0.7 1012.4 28.4
2014-Oct-14 11:00S 08°17' E 089°44'1 1.1 1010.8 28.5
2014-Oct-14 10:00S 08°17' E 089°45'3 0.9 1010.4 28.5
2014-Oct-14 07:00S 08°18' E 089°48'0 0.0 1010.6 28.5
2014-Oct-14 06:00S 08°18' E 089°48'0 0.2 1011.4 28.5
2014-Oct-14 04:00S 08°18' E 089°48'0 0.2 1012.5 28.4
2014-Oct-14 03:00S 08°18' E 089°48'3 1.5 1012.7 28.4
2014-Oct-14 01:00S 08°18' E 089°51'0 0.2 1012.3 28.4
2014-Oct-13 23:00S 08°18' E 089°51'1 0.9 1010.9 28.4
2014-Oct-13 22:00S 08°18' E 089°52'1 0.6 1010.4 28.4
2014-Oct-13 21:00S 08°18' E 089°53'1 1.1 1010.7 28.4
2014-Oct-13 20:00S 08°18' E 089°54'5 0.6 1011.3 28.4
2014-Oct-13 12:00S 08°19' E 089°59'0 0.0 1011.9 28.4
2014-Oct-13 11:00S 08°19' E 089°59'1 0.5 1010.9 28.4
2014-Oct-13 10:00S 08°19' E 089°60'4 2.0 1010.6 28.5
2014-Oct-13 08:00S 08°19' E 090°04'0 0.0 1011.1 28.5
2014-Oct-13 07:00S 08°19' E 090°04'0 0.0 1011.6 28.4
2014-Oct-13 04:00S 08°19' E 090°04'1 0.3 1013.0 28.4
2014-Oct-13 02:00S 08°19' E 090°04'5 1.7 1012.6 28.4
2014-Oct-12 23:00S 08°19' E 090°09'0 0.2 1010.8 28.4
2014-Oct-12 22:00S 08°19' E 090°09'2 2.0 1010.4 28.4
2014-Oct-12 21:00S 08°19' E 090°11'0 0.0 1010.5 28.4
2014-Oct-12 20:00S 08°19' E 090°11'3 0.7 1010.6 28.4
2014-Oct-12 16:00S 08°19' E 090°14'3 1.6 1012.9 28.4
2014-Oct-12 14:00S 08°20' E 090°17'0 0.0 1012.7 28.4
2014-Oct-12 13:00S 08°20' E 090°17'3 0.9 1012.0 28.4
2014-Oct-12 10:00S 08°20' E 090°20'4 2.1 1010.2 28.5
2014-Oct-12 08:00S 08°21' E 090°24'4 4.3 1010.2 28.5
2014-Oct-12 07:00S 08°20' E 090°20'4 1.4 1010.7 28.5
2014-Oct-12 04:00S 08°21' E 090°24'3 0.7 1012.7 28.4
2014-Oct-11 23:00S 08°22' E 090°27'7 1.1 1010.9 28.4
2014-Oct-11 16:00S 08°24' E 090°35'   1011.7 28.4
Track history (hours):
 
Tides and Currents Weather Stations Pressure Air Temp Water Temp Dewpoint Dewpoint Depression Visibility Wind Speed Wind Dir Waves Ship Positions

Drifting buoy 53524

Last reported at 2014-Oct-21 12:00 UTC. Time now 2014-Oct-21 13:45 UTC.
Position S 07°60' E 087°43'.

Barometer 1008.8 mb
Water temperature 28.1 ° C

Date/timePositionNaut miles runAvg speedWind from/ knotsBaromVisibWave heightAir tempDewpointWater temp
2014-Oct-21 12:00S 07°60' E 087°43'5 2.4 1008.8 28.1
2014-Oct-21 10:00S 07°57' E 087°47'0 0.0 1008.0 28.1
2014-Oct-21 08:00S 07°57' E 087°47'0 0.0 1008.7 28.0
2014-Oct-21 03:00S 07°57' E 087°47'2 0.6 1011.8 27.8
2014-Oct-21 00:00S 07°56' E 087°48'2 1.6 1009.5 27.8
2014-Oct-20 23:00S 07°56' E 087°50'3 0.8 1009.2 27.8
2014-Oct-20 19:00S 07°55' E 087°53'1 0.5 1009.9 27.8
2014-Oct-20 16:00S 07°54' E 087°54'1 0.5 1011.6 27.8
2014-Oct-20 15:00S 07°53' E 087°54'4 1.2 1011.7 27.8
2014-Oct-20 12:00S 07°52' E 087°58'1 0.3 1009.4 28.1
2014-Oct-20 10:00S 07°53' E 087°57'2 2.3 1008.2 28.3
2014-Oct-20 09:00S 07°52' E 087°60'3 2.8 1008.1 28.3
2014-Oct-20 08:00S 07°52' E 088°02'0 0.0 1008.5 28.3
2014-Oct-20 04:00S 07°52' E 088°02'4 1.3 1010.6 28.3
2014-Oct-20 01:00S 07°53' E 088°06'2 0.8 1010.1 28.2
2014-Oct-19 23:00S 07°53' E 088°08'5 1.2 1008.6 28.2
2014-Oct-19 19:00S 07°55' E 088°12'0 0.1 1009.4 28.2
2014-Oct-19 16:00S 07°55' E 088°12'1 0.4 1011.2 28.2
2014-Oct-19 14:00S 07°54' E 088°13'2 1.1 1010.7 28.3
2014-Oct-19 12:00S 07°56' E 088°14'1 0.8 1009.2 28.3
2014-Oct-19 11:00S 07°55' E 088°15'1 1.3 1008.4 28.3
2014-Oct-19 10:00S 07°56' E 088°16'0 0.0 1008.2 28.4
2014-Oct-19 08:00S 07°56' E 088°16'5 0.7 1008.5 28.4
2014-Oct-19 00:00S 07°58' E 088°21'1 0.3 1009.9 28.2
2014-Oct-18 22:00S 07°58' E 088°22'1 0.3 1009.3 28.2
2014-Oct-18 19:00S 07°58' E 088°23'3 2.9 1010.0 28.3
2014-Oct-18 18:00S 07°59' E 088°26'1 0.5 1010.9 28.3
2014-Oct-18 16:00S 07°59' E 088°27'4 0.8 1012.2 28.3
2014-Oct-18 11:00S 07°60' E 088°30'1 1.3 1009.8 28.3
2014-Oct-18 10:00S 07°60' E 088°32'4 1.3 1009.4 28.3
2014-Oct-18 07:00S 08°01' E 088°35'1 0.3 1010.3 28.3
2014-Oct-18 02:00S 08°02' E 088°37'6 1.5 1012.6 28.3
2014-Oct-17 22:00S 08°04' E 088°42'2 0.8 1009.4 28.3
2014-Oct-17 20:00S 08°03' E 088°41'0 0.0 1010.2 28.3
2014-Oct-17 19:00S 08°03' E 088°41'5 1.8 1010.8 28.3
2014-Oct-17 16:00S 08°05' E 088°46'1 1.3 1012.7 28.3
2014-Oct-17 15:00S 08°05' E 088°47'3 3.1 1012.7 28.3
2014-Oct-17 14:00S 08°07' E 088°50'0 0.2 1012.3 28.3
2014-Oct-17 12:00S 08°07' E 088°50'2 1.5 1011.3 28.3
2014-Oct-17 11:00S 08°08' E 088°51'0 0.0 1010.5 28.3
2014-Oct-17 09:00S 08°08' E 088°51'1 1.4 1009.8 28.4
2014-Oct-17 08:00S 08°09' E 088°52'1 0.6 1009.8 28.4
2014-Oct-17 07:00S 08°09' E 088°53'2 0.5 1010.3 28.4
2014-Oct-17 02:00S 08°10' E 088°54'2 1.9 1012.8 28.3
2014-Oct-17 01:00S 08°11' E 088°56'0 0.0 1012.1 28.3
2014-Oct-17 00:00S 08°11' E 088°56'2 0.5 1011.2 28.3
2014-Oct-16 20:00S 08°11' E 088°58'1 1.4 1010.7 28.3
2014-Oct-16 19:00S 08°11' E 088°59'0 0.0 1011.5 28.3
2014-Oct-16 18:00S 08°11' E 088°59'2 2.2 1012.4 28.3
2014-Oct-16 17:00S 08°12' E 089°01'4 0.7 1013.1 28.3
2014-Oct-16 11:00S 08°12' E 089°06'4 0.5 1010.1 28.4
2014-Oct-16 03:00S 08°13' E 089°09'3 1.0 1012.9 28.3
2014-Oct-16 00:00S 08°13' E 089°12'1 0.8 1011.3 28.3
2014-Oct-15 23:00S 08°14' E 089°13'2 0.7 1010.8 28.3
2014-Oct-15 20:00S 08°14' E 089°15'4 1.0 1010.4 28.3
2014-Oct-15 16:00S 08°14' E 089°20'0 0.3 1012.5 28.3
2014-Oct-15 15:00S 08°14' E 089°19'4 4.1 1012.3 28.3
2014-Oct-15 14:00S 08°15' E 089°23'0 0.4 1012.2 28.4
2014-Oct-15 13:00S 08°14' E 089°24'1 0.7 1011.9 28.4
2014-Oct-15 11:00S 08°15' E 089°25'2 1.0 1010.5 28.4
2014-Oct-15 09:00S 08°15' E 089°27'3 1.7 1010.1 28.4
2014-Oct-15 07:00S 08°15' E 089°30'3 3.3 1011.1 28.4
2014-Oct-15 06:00S 08°15' E 089°27'3 1.6 1011.8 28.4
2014-Oct-15 04:00S 08°15' E 089°30'4 0.9 1012.8 28.4
2014-Oct-15 00:00S 08°16' E 089°34'1 0.7 1011.3 28.3
2014-Oct-14 22:00S 08°16' E 089°35'2 1.6 1010.8 28.3
2014-Oct-14 21:00S 08°16' E 089°37'1 0.7 1010.9 28.3
2014-Oct-14 20:00S 08°16' E 089°36'2 2.1 1011.4 28.4
2014-Oct-14 19:00S 08°16' E 089°38'6 0.7 1012.4 28.4
2014-Oct-14 11:00S 08°17' E 089°44'1 1.1 1010.8 28.5
2014-Oct-14 10:00S 08°17' E 089°45'3 0.9 1010.4 28.5
2014-Oct-14 07:00S 08°18' E 089°48'0 0.0 1010.6 28.5
2014-Oct-14 06:00S 08°18' E 089°48'0 0.2 1011.4 28.5
2014-Oct-14 04:00S 08°18' E 089°48'0 0.2 1012.5 28.4
2014-Oct-14 03:00S 08°18' E 089°48'3 1.5 1012.7 28.4
2014-Oct-14 01:00S 08°18' E 089°51'0 0.2 1012.3 28.4
2014-Oct-13 23:00S 08°18' E 089°51'1 0.9 1010.9 28.4
2014-Oct-13 22:00S 08°18' E 089°52'1 0.6 1010.4 28.4
2014-Oct-13 21:00S 08°18' E 089°53'1 1.1 1010.7 28.4
2014-Oct-13 20:00S 08°18' E 089°54'5 0.6 1011.3 28.4
2014-Oct-13 12:00S 08°19' E 089°59'0 0.0 1011.9 28.4
2014-Oct-13 11:00S 08°19' E 089°59'1 0.5 1010.9 28.4
2014-Oct-13 10:00S 08°19' E 089°60'4 2.0 1010.6 28.5
2014-Oct-13 08:00S 08°19' E 090°04'0 0.0 1011.1 28.5
2014-Oct-13 07:00S 08°19' E 090°04'0 0.0 1011.6 28.4
2014-Oct-13 04:00S 08°19' E 090°04'1 0.3 1013.0 28.4
2014-Oct-13 02:00S 08°19' E 090°04'5 1.7 1012.6 28.4
2014-Oct-12 23:00S 08°19' E 090°09'0 0.2 1010.8 28.4
2014-Oct-12 22:00S 08°19' E 090°09'2 2.0 1010.4 28.4
2014-Oct-12 21:00S 08°19' E 090°11'0 0.0 1010.5 28.4
2014-Oct-12 20:00S 08°19' E 090°11'3 0.7 1010.6 28.4
2014-Oct-12 16:00S 08°19' E 090°14'3 1.6 1012.9 28.4
2014-Oct-12 14:00S 08°20' E 090°17'0 0.0 1012.7 28.4
2014-Oct-12 13:00S 08°20' E 090°17'3 0.9 1012.0 28.4
2014-Oct-12 10:00S 08°20' E 090°20'4 2.1 1010.2 28.5
2014-Oct-12 08:00S 08°21' E 090°24'4 4.3 1010.2 28.5
2014-Oct-12 07:00S 08°20' E 090°20'4 1.4 1010.7 28.5
2014-Oct-12 04:00S 08°21' E 090°24'3 0.7 1012.7 28.4
2014-Oct-11 23:00S 08°22' E 090°27'7 1.1 1010.9 28.4
2014-Oct-11 16:00S 08°24' E 090°35'   1011.7 28.4

Dump ship's entire track history